Tracking 31027 objects as of 19-Jul-2025
HD Live streaming from Space Station
objects crossing your sky now

COSMOS 2219

Track COSMOS 2219 now!
10-day predictions
COSMOS 2219 is classified as:


NORAD ID: 22219
Int'l Code: 1992-076A
Perigee: 839.1 km
Apogee: 866.3 km
Inclination: 71.1 °
Period: 101.8 minutes
Semi major axis: 7223 km
RCS: 7.421 m2 (large)
Launch date: November 17, 1992
Source: Commonwealth of Independent States (former USSR) (CIS)
Launch site: TYURATAM MISSILE AND SPACE COMPLEX (TTMTR)
Your satellite tracking list
PRISMA
Track 1 satellite(s)




NASA's NSSDC Master Catalog

Two Line Element Set (TLE):
1 22219U 92076A   25199.58512394 -.00000031  00000-0  85325-5 0  9996
2 22219  71.0612 147.4335 0018798 205.1498 154.8711 14.14038284685285
Source of the keplerian elements: AFSPC